Regional Weather Roundup
Issued by NWS

Home | Current Version | Previous Version | Text Only | Print | Product List | Glossary On
Versions: 1 2 3 4 5 6 7 8 9 10 11 12 13 14 15 16 17 18 19 20 21 22 23 24 25 26 27 28 29 30 31 32 33 34 35 36 37 38 39 40 41 42 43 44 45 46 47 48 49 50
000
ASUS43 KOAX 291410
RWRNE

WEATHER ROUNDUP FOR NEBRASKA
NATIONAL WEATHER SERVICE OMAHA NE
900 AM CDT SAT APR 29 2017

NOTES: SATELLITE DATA IS BEING USED TO AUGMENT CLOUD COVER ABOVE
       12000 FEET.
       "FAIR" INDICATES FEW OR NO CLOUDS BELOW 12,000 FEET WITH NO
       SIGNIFICANT WEATHER AND/OR OBSTRUCTIONS TO VISIBILITY.

  * THESE STATIONS DO NOT REPORT WEATHER SUCH AS RAIN...SNOW OR FOG.

NEZ001>004-019>022-054>056-291500-
NEBRASKA PANHANDLE

CITY           SKY/WX    TMP DP  RH WIND       PRES   REMARKS
SCOTTSBLUFF    CLOUDY    34  26  72 N7        30.26R WCI  28
ALLIANCE       CLOUDY    33  28  81 N8        30.22R WCI  26
CHADRON        CLOUDY    34  29  82 SW5       30.29R WCI  30
KIMBALL        CLOUDY    32  30  92 N3        30.22R
SIDNEY         CLOUDY    33  29  85 NE12      30.21R WCI  24
$$

NEZ057>060-069>072-079>082-291500-
SOUTHWEST NEBRASKA

CITY           SKY/WX    TMP DP  RH WIND       PRES   REMARKS
NORTH PLATTE   CLOUDY    39  28  64 NE16      30.15F WCI  30
IMPERIAL       CLOUDY    37  28  70 NE15      30.15R WCI  28
LEXINGTON      CLOUDY    40  31  68 NE15      30.11F WCI  32
MCCOOK         CLOUDY    37  34  89 NE21      30.10F WCI  26
OGALLALA       CLOUDY    38  28  66 N13       30.18F WCI  31
$$

NEZ005>010-023>029-035>040-094-291500-
NORTH CENTRAL NEBRASKA

CITY           SKY/WX    TMP DP  RH WIND       PRES   REMARKS
VALENTINE      CLOUDY    42  20  41 NE12      30.25R
AINSWORTH      CLOUDY    39  26  59 NE13      30.24S WCI  32
BROKEN BOW     PTSUNNY   40  27  59 NE14      30.12F WCI  32
O`NEILL        PTSUNNY   40  25  54 NE8       30.23F WCI  35
ORD            CLOUDY    40  28  62 NE10      30.15F WCI  33
THEDFORD       CLOUDY    38  26  61 NE12      30.19F WCI  31
$$

NEZ041-046>049-061>064-073>077-083>087-291500-
SOUTH CENTRAL NEBRASKA

CITY           SKY/WX    TMP DP  RH WIND       PRES   REMARKS
GRAND ISLAND   CLOUDY    39  35  86 NE15      30.10F WCI  31
AURORA         LGT RAIN  40  35  82 N16G23    30.09F WCI  32
HASTINGS       LGT RAIN  40  34  79 NE22G29   30.06F WCI  30
HEBRON         LGT RAIN  39  37  93 NE16G25   30.02F WCI  30
HOLDREGE       CLOUDY    39  33  79 NE21G30   30.06F WCI  29
KEARNEY *      CLOUDY    39  30  70 NE16      30.09F WCI  30
YORK           LGT RAIN  39  37  93 NE18      30.10F WCI  30
$$

NEZ011>018-030>034-042>045-291500-
NORTHEAST NEBRASKA

CITY           SKY/WX    TMP DP  RH WIND       PRES   REMARKS
NORFOLK        CLOUDY    41  28  60 NE15      30.18R
ALBION         CLOUDY    42  29  61 N14       30.15F
BLAIR          CLOUDY    43  35  73 NE15G21   30.08F
FREMONT        LGT RAIN  42  35  76 N8        30.13S
TEKAMAH        CLOUDY    43  34  70 N14       30.15S
WAYNE          CLOUDY    41  32  70 NE14      30.19S
$$

NEZ050>053-065>068-078-088>093-291500-
SOUTHEAST NEBRASKA

CITY           SKY/WX    TMP DP  RH WIND       PRES   REMARKS
LINCOLN        LGT RAIN  41  38  89 N14       30.09F
OMAHA EPPLEY   CLOUDY    45  33  63 N10G21    30.09F
BEATRICE       LGT RAIN  41  38  91 NE14G23   30.00F
FALLS CITY     LGT RAIN  44  39  82 N14G25    29.96F
NEBRASKA CITY  LGT RAIN  42  36  81 NE17      30.02F
PLATTSMOUTH    CLOUDY    43  33  67 NE17G23   30.05F
$$

NEZ044-045-051>053-067-291500-
OMAHA AREA

CITY           SKY/WX    TMP DP  RH WIND       PRES   REMARKS
OMAHA EPPLEY   CLOUDY    45  33  63 N10G21    30.09F
BLAIR          CLOUDY    43  35  73 NE15G21   30.08F
FREMONT        LGT RAIN  42  35  76 N8        30.13S
MILLARD        CLOUDY    46  36  67 NE9       30.08F
OFFUTT AFB     CLOUDY    44  34  69 NE13G21   30.06F
PLATTSMOUTH    CLOUDY    43  33  67 NE17G23   30.05F
WAHOO          LGT RAIN  41  36  81 N14       30.10F
$$



USA.gov is the U.S. government's official web portal to all federal, state and local government web resources and services.